Вернуться в каталог

ELECTRON KICK STAGE R/B

АктивенSSO
NORAD 62928·ROCKET BODY·🇺🇸 United States

Запущен Feb 8, 2025 с Rocket Lab Launch Complex 1

Loading…

Ближайшие Пролёты (ближайшие 24 часа)

TLE

СвежийSource: Space-Track

Эпоха: Sep 14, 2026, 22:14 UTC

1 62928U 25028A   26257.92657837  .00001561  00000-0  16766-3 0  9995
2 62928  97.8804 317.8446 0037936 273.9170  85.7711 14.89561064 86709

Отслеживайте ELECTRON KICK STAGE R/B в реальном времени с AllMySat

Download on the App Store